Location: Bukit Lungun
(2.6833°N, 113.9667°E)
Time: 20:07:58
(UTC+00:00)

BLOCK DM-SL R/B - Pass Details

Date: 02 March 2021
Orbit: 650 x 35846 km, 0.8° (Epoch: 18 April)

Event Time Altitude Azimuth Distance (km) Brightness Sun altitude
Exits shadow 21:42:15 17° 257° (WSW) 1,969 4.5 -13.7°
Maximum altitude 21:45:32 56° 182° (S) 774 3.1 -12.9°
Drops below altitude 10° 21:49:24 10° 101° (E) 2,213 6.9 -11.9°
Sets 21:52:09 0° 96° (E) 3,626 8.8 -11.2°
